This is the latest recevied weather packets stored in our database for station/object N2QDK-2. If no packets are shown the sender has not sent any weather packets the latest 10 day(s).
| Time | Temp. | Humidity | Pressure | Rain* | Wind** | Luminosity | Snow |
|---|---|---|---|---|---|---|---|
| 1777910116 | 19.44° C | 50% | 1006 hPa | 0 mm | - | - | - |
| 1777909516 | 18.89° C | 49% | 1006.1 hPa | 0 mm | - | - | - |
| 1777908916 | 18.89° C | 52% | 1006.2 hPa | 0 mm | - | - | - |
| 1777908316 | 18.33° C | 52% | 1006.1 hPa | 0 mm | - | - | - |
| 1777907716 | 18.33° C | 52% | 1006.3 hPa | 0 mm | - | - | - |
| 1777907116 | 17.78° C | 51% | 1006.3 hPa | 0 mm | - | - | - |
| 1777906516 | 17.78° C | 50% | 1006.3 hPa | 0 mm | - | - | - |
| 1777905916 | 17.78° C | 51% | 1006.3 hPa | 0 mm | - | - | - |
| 1777905316 | 17.22° C | 53% | 1006.2 hPa | 0 mm | - | - | - |
| 1777904716 | 16.67° C | 53% | 1006.2 hPa | 0 mm | - | - | - |
| 1777904116 | 16.67° C | 53% | 1006.2 hPa | 0 mm | - | - | - |
| 1777903516 | 16.11° C | 54% | 1006.3 hPa | 0 mm | - | - | - |
| 1777902916 | 15.56° C | 53% | 1006.3 hPa | 0 mm | - | - | - |
| 1777902316 | 15.56° C | 53% | 1006.5 hPa | 0 mm | - | - | - |
| 1777901716 | 15.56° C | 54% | 1006.7 hPa | 0 mm | - | - | - |
| 1777901116 | 15° C | 54% | 1006.7 hPa | 0 mm | - | - | - |
| 1777900516 | 14.44° C | 55% | 1006.8 hPa | 0 mm | - | - | - |
| 1777899916 | 13.89° C | 56% | 1006.9 hPa | 0 mm | - | - | - |
| 1777899316 | 13.89° C | 55% | 1007 hPa | 0 mm | - | - | - |
| 1777898716 | 13.89° C | 56% | 1007.1 hPa | 0 mm | - | - | - |
| 1777898116 | 13.33° C | 55% | 1007.1 hPa | 0 mm | - | - | - |
| 1777897516 | 12.78° C | 57% | 1007.1 hPa | 0 mm | - | - | - |
| 1777896916 | 12.22° C | 58% | 1007.1 hPa | 0 mm | - | - | - |
| 1777896315 | 12.22° C | 59% | 1007.1 hPa | 0 mm | - | - | - |
| 1777895715 | 11.67° C | 58% | 1007.1 hPa | 0 mm | - | - | - |
* Rain latest hour (hover to see other rain measurements)
** Current wind speed in m/s (hover to see current wind gust speed)